• In Uzbekistan
  • List of Countries
  • For 7 days
  • Water Temperature
  • Weather Map
  • Weather Widgets
  • user-avatar
    Login

    Hourly Weather Walentynow

    Today, 21 September, Saturday

    Time Temperature Precipitation Wind Pressure Humidity
    00:00 +11°C° 0 mm 3 mps 756 mmHg 72%
    01:00 +11°C° 0 mm 4 mps 756 mmHg 75%
    02:00 +11°C° 0 mm 4 mps 756 mmHg 76%
    03:00 +11°C° 0 mm 4 mps 756 mmHg 77%
    04:00 +11°C° 0 mm 4 mps 756 mmHg 78%
    05:00 +11°C° 0 mm 4 mps 756 mmHg 78%
    06:00 +11°C° 0 mm 4 mps 756 mmHg 78%
    07:00 +10°C° 0 mm 5 mps 756 mmHg 78%
    08:00 +12°C° 0 mm 5 mps 756 mmHg 73%
    09:00 +14°C° 0 mm 5 mps 756 mmHg 68%
    10:00 +15°C° 0 mm 5 mps 756 mmHg 63%
    11:00 +16°C° 0 mm 5 mps 755 mmHg 60%
    12:00 +17°C° 0 mm 5 mps 755 mmHg 57%
    13:00 +19°C° 0 mm 5 mps 755 mmHg 54%
    14:00 +19°C° 0 mm 5 mps 755 mmHg 55%
    15:00 +19°C° 0 mm 4 mps 754 mmHg 55%
    16:00 +19°C° 0 mm 4 mps 754 mmHg 55%
    17:00 +18°C° 0 mm 3 mps 754 mmHg 60%
    18:00 +16°C° 0 mm 3 mps 754 mmHg 64%
    19:00 +15°C° 0 mm 2 mps 754 mmHg 69%
    20:00 +14°C° 0 mm 2 mps 754 mmHg 69%
    21:00 +14°C° 0 mm 2 mps 754 mmHg 70%
    22:00 +14°C° 0 mm 2 mps 754 mmHg 71%
    23:00 +13°C° 0 mm 2 mps 754 mmHg 72%

    Tomorrow, 22 September, Sunday

    Time Temperature Precipitation Wind Pressure Humidity
    00:00 +13°C° 0 mm 2 mps 753 mmHg 74%
    01:00 +12°C° 0 mm 2 mps 753 mmHg 75%
    02:00 +12°C° 0 mm 2 mps 753 mmHg 76%
    03:00 +12°C° 0 mm 2 mps 753 mmHg 78%
    04:00 +10°C° 0 mm 2 mps 753 mmHg 79%
    05:00 +12°C° 0 mm 2 mps 752 mmHg 77%
    06:00 +12°C° 0 mm 2 mps 752 mmHg 75%
    07:00 +13°C° 0 mm 2 mps 752 mmHg 73%
    08:00 +15°C° 0 mm 2 mps 752 mmHg 64%
    09:00 +17°C° 0 mm 3 mps 752 mmHg 55%
    10:00 +19°C° 0 mm 3 mps 752 mmHg 46%
    11:00 +20°C° 0 mm 3 mps 751 mmHg 43%
    12:00 +21°C° 0 mm 3 mps 751 mmHg 40%
    13:00 +22°C° 0 mm 3 mps 751 mmHg 36%
    14:00 +22°C° 0 mm 3 mps 750 mmHg 38%
    15:00 +23°C° 0 mm 2 mps 750 mmHg 39%
    16:00 +23°C° 0 mm 2 mps 749 mmHg 41%
    17:00 +20°C° 0 mm 2 mps 749 mmHg 44%
    18:00 +19°C° 0 mm 1 mps 749 mmHg 47%
    19:00 +16°C° 0 mm 1 mps 749 mmHg 51%
    20:00 +16°C° 0 mm 1 mps 749 mmHg 52%
    21:00 +15°C° 0 mm 1 mps 749 mmHg 54%
    22:00 +15°C° 0 mm 2 mps 749 mmHg 56%
    23:00 +15°C° 0 mm 2 mps 749 mmHg 59%

    Day after tomorrow, 23 September, Monday

    Time Temperature Precipitation Wind Pressure Humidity
    00:00 +14°C° 0 mm 2 mps 749 mmHg 62%
    01:00 +14°C° 0 mm 2 mps 749 mmHg 64%
    02:00 +13°C° 0 mm 2 mps 749 mmHg 66%
    03:00 +13°C° 0 mm 2 mps 749 mmHg 68%
    04:00 +13°C° 0 mm 2 mps 749 mmHg 70%
    05:00 +12°C° 0 mm 3 mps 749 mmHg 70%
    06:00 +12°C° 0 mm 3 mps 748 mmHg 69%
    07:00 +13°C° 0 mm 3 mps 748 mmHg 69%
    08:00 +16°C° 0 mm 3 mps 748 mmHg 63%
    09:00 +18°C° 0 mm 3 mps 748 mmHg 57%
    10:00 +20°C° 0 mm 4 mps 748 mmHg 51%
    11:00 +20°C° 0 mm 3 mps 748 mmHg 48%
    12:00 +21°C° 0 mm 3 mps 748 mmHg 44%
    13:00 +22°C° 0 mm 3 mps 747 mmHg 40%
    14:00 +22°C° 0 mm 3 mps 747 mmHg 42%
    15:00 +21°C° 0 mm 3 mps 747 mmHg 44%
    16:00 +21°C° 0 mm 2 mps 747 mmHg 46%
    17:00 +20°C° 0 mm 2 mps 747 mmHg 50%
    18:00 +18°C° 0 mm 2 mps 747 mmHg 54%
    19:00 +18°C° 0 mm 1 mps 747 mmHg 59%
    20:00 +18°C° 0 mm 1 mps 747 mmHg 60%
    21:00 +18°C° 0 mm 1 mps 747 mmHg 61%
    22:00 +16°C° 0 mm 1 mps 747 mmHg 62%
    23:00 +16°C° 0 mm 1 mps 747 mmHg 62%

    24 September, Tuesday

    Time Temperature Precipitation Wind Pressure Humidity
    00:00 +16°C° 0 mm 1 mps 747 mmHg 62%
    01:00 +16°C° 0 mm 1 mps 747 mmHg 62%
    02:00 +16°C° 0 mm 1 mps 747 mmHg 64%
    03:00 +15°C° 0 mm 1 mps 747 mmHg 66%
    04:00 +15°C° 0 mm 2 mps 747 mmHg 69%
    05:00 +15°C° 0 mm 2 mps 747 mmHg 70%
    06:00 +14°C° 0 mm 2 mps 747 mmHg 72%
    07:00 +14°C° 0 mm 2 mps 747 mmHg 74%
    08:00 +15°C° 0 mm 2 mps 747 mmHg 71%
    09:00 +16°C° 0 mm 2 mps 748 mmHg 68%
    10:00 +16°C° 0 mm 2 mps 748 mmHg 65%
    11:00 +17°C° 0 mm 2 mps 748 mmHg 63%
    12:00 +18°C° 0 mm 2 mps 747 mmHg 60%
    13:00 +19°C° 0 mm 2 mps 747 mmHg 58%
    14:00 +19°C° 0 mm 2 mps 747 mmHg 58%
    15:00 +19°C° 0 mm 2 mps 747 mmHg 59%
    16:00 +19°C° 0 mm 2 mps 747 mmHg 59%
    17:00 +19°C° 0 mm 1 mps 747 mmHg 63%
    18:00 +18°C° 0 mm 1 mps 747 mmHg 67%
    19:00 +16°C° 0 mm 1 mps 747 mmHg 71%
    20:00 +16°C° 0 mm 1 mps 747 mmHg 73%
    21:00 +16°C° 0 mm 1 mps 747 mmHg 75%
    22:00 +16°C° 0 mm 1 mps 747 mmHg 77%
    23:00 +15°C° 0 mm 1 mps 747 mmHg 80%

    25 September, Wednesday

    Time Temperature Precipitation Wind Pressure Humidity
    00:00 +15°C° 0 mm 1 mps 747 mmHg 83%
    01:00 +14°C° 0 mm 2 mps 747 mmHg 86%
    02:00 +14°C° 0 mm 1 mps 746 mmHg 87%
    03:00 +14°C° 0 mm 1 mps 746 mmHg 88%
    04:00 +14°C° 0 mm 1 mps 746 mmHg 90%
    05:00 +14°C° 0 mm 2 mps 746 mmHg 88%
    06:00 +14°C° 0 mm 2 mps 746 mmHg 86%
    07:00 +15°C° 0 mm 2 mps 745 mmHg 84%
    08:00 +15°C° 0 mm 2 mps 745 mmHg 79%
    09:00 +16°C° 0 mm 3 mps 745 mmHg 75%
    10:00 +17°C° 0 mm 3 mps 746 mmHg 70%
    11:00 +17°C° 0 mm 3 mps 745 mmHg 71%
    12:00 +17°C° 0 mm 4 mps 745 mmHg 73%
    13:00 +15°C° 0 mm 4 mps 745 mmHg 74%
    14:00 +15°C° 0.7 mm 4 mps 745 mmHg 80%
    15:00 +14°C° 0.7 mm 4 mps 744 mmHg 85%
    16:00 +13°C° 0.7 mm 4 mps 744 mmHg 91%
    17:00 +13°C° 0.2 mm 3 mps 744 mmHg 91%
    18:00 +13°C° 0.2 mm 3 mps 744 mmHg 91%
    19:00 +13°C° 0.2 mm 3 mps 744 mmHg 91%
    20:00 +13°C° 0 mm 3 mps 744 mmHg 91%
    21:00 +13°C° 0 mm 3 mps 744 mmHg 90%
    22:00 +13°C° 0 mm 4 mps 745 mmHg 90%
    23:00 +13°C° 0 mm 4 mps 744 mmHg 90%

    26 September, Thursday

    Time Temperature Precipitation Wind Pressure Humidity
    00:00 +13°C° 0 mm 4 mps 744 mmHg 89%
    01:00 +13°C° 0 mm 4 mps 744 mmHg 89%
    02:00 +12°C° 0 mm 4 mps 745 mmHg 90%
    03:00 +12°C° 0 mm 4 mps 745 mmHg 91%
    04:00 +12°C° 0 mm 4 mps 745 mmHg 92%
    05:00 +13°C° 0.1 mm 4 mps 745 mmHg 91%
    06:00 +13°C° 0.1 mm 4 mps 745 mmHg 90%
    07:00 +13°C° 0.1 mm 4 mps 745 mmHg 88%
    08:00 +14°C° 0.1 mm 4 mps 746 mmHg 82%
    09:00 +15°C° 0.1 mm 4 mps 746 mmHg 76%
    10:00 +17°C° 0.1 mm 5 mps 746 mmHg 70%
    11:00 +17°C° 0.2 mm 5 mps 746 mmHg 67%
    12:00 +19°C° 0.2 mm 5 mps 746 mmHg 63%
    13:00 +20°C° 0.2 mm 4 mps 746 mmHg 60%
    14:00 +20°C° 0.1 mm 4 mps 746 mmHg 60%
    15:00 +19°C° 0.1 mm 4 mps 746 mmHg 61%
    16:00 +19°C° 0.1 mm 3 mps 746 mmHg 61%
    17:00 +18°C° 0 mm 3 mps 746 mmHg 65%
    18:00 +17°C° 0 mm 2 mps 746 mmHg 69%
    19:00 +16°C° 0 mm 2 mps 746 mmHg 73%
    20:00 +16°C° 0 mm 2 mps 746 mmHg 74%
    21:00 +16°C° 0 mm 3 mps 746 mmHg 74%
    22:00 +16°C° 0 mm 3 mps 747 mmHg 74%
    23:00 +16°C° 0.1 mm 3 mps 746 mmHg 76%
    Show more